Pueblo, CO

12:39 PM MST on January 18, 2017 (GMT -0700)
Pueblo Memorial

Weather History for KPUB - June, 2013

Change the Weather History Date:

Sunday, June 16, 2013

  Actual Average Record
Temperature  
Mean Temperature 74 °F 70 °F  
Max Temperature 90 °F 88 °F 102 °F (1985)
Min Temperature 57 °F 53 °F 41 °F (1998)
Degree Days  
Heating Degree Days 0 1  
Month to date heating degree days 17 22  
Since 1 June heating degree days 17 22  
Since 1 July heating degree days 5724 5635  
Cooling Degree Days 9 6  
Month to date cooling degree days 121 66  
Year to date cooling degree days 194 100  
Since 1 June cooling degree days 121 66  
Growing Degree Days 24 (Base 50)    
Moisture  
Dew Point 44 °F    
Average Humidity 40    
Maximum Humidity 65    
Minimum Humidity 15    
Precipitation  
Precipitation T in 0.04 in 0.64 in (1969)
Month to date precipitation 0.24 0.74  
Year to date precipitation 2.17 5.23  
Snow  
Snow 0.00 in 0.00 in 0.00 in (2002)
Month to date snowfall T 0.0  
Since 1 June snowfall T 0.0  
Since 1 July snowfall 24.4 31.8  
Snow Depth 0.00 in    
Sea Level Pressure  
Sea Level Pressure 29.95 in    
Wind  
Wind Speed 9 mph (NE)    
Max Wind Speed 52 mph    
Max Gust Speed 60 mph    
Visibility 9 miles    
Events Rain , Thunderstorm    
T = Trace of Precipitation, MM = Missing Value Source: NWS Daily Summary

Daily Weather History Graph

Daily Weather History Graph

Search for Another Location

Airport or City:

Trip Planner

Search our weather history database for the weather conditions in past years. The results will help you decide how hot, cold, wet, or windy it might be!

Date:

Astronomy

Jun. 16, 2013 Rise Set
Actual Time 5:34 AM MDT 8:23 PM MDT
Civil Twilight 5:02 AM MDT 8:55 PM MDT
Nautical Twilight 4:22 AM MDT 9:35 PM MDT
Astronomical Twilight 3:37 AM MDT 10:20 PM MDT
Moon 1:06 PM MDT (6/16) 12:35 AM MDT (6/16)
Length of Visible Light 15h 52m
Length of Day
14h 49m
Waxing Crescent, 50% of the Moon is Illuminated
Jun 16
Waxing Crescent
Jun 23
Full
Jun 29
Last Quarter
Jul 8
New
Jul 15
First Quarter

Hourly Weather History & Observations

Time (MDT) Temp. Dew Point Humidity Pressure Visibility Wind Dir Wind Speed Gust Speed Precip Events Conditions
12:53 AM 61.0 °F 39.9 °F 46% 29.89 in 10.0 mi Calm Calm - N/A   Clear
1:53 AM 63.0 °F 43.0 °F 48% 29.90 in 10.0 mi East 8.1 mph - N/A   Clear
2:53 AM 64.0 °F 45.0 °F 50% 29.92 in 10.0 mi NE 4.6 mph - N/A   Clear
3:53 AM 63.0 °F 48.0 °F 58% 29.91 in 10.0 mi ESE 4.6 mph - N/A   Clear
4:53 AM 59.0 °F 45.0 °F 60% 29.94 in 10.0 mi NE 4.6 mph - N/A   Clear
5:53 AM 59.0 °F 46.9 °F 64% 29.97 in 10.0 mi NE 6.9 mph - N/A   Clear
6:53 AM 62.1 °F 50.0 °F 65% 29.99 in 10.0 mi NE 9.2 mph - N/A   Clear
7:53 AM 64.0 °F 51.1 °F 63% 29.99 in 10.0 mi Calm Calm - N/A   Clear
8:53 AM 68.0 °F 51.1 °F 55% 29.99 in 10.0 mi West 3.5 mph - N/A   Clear
9:53 AM 72.0 °F 50.0 °F 46% 29.97 in 10.0 mi Variable 4.6 mph - N/A   Clear
10:53 AM 77.0 °F 48.0 °F 36% 29.94 in 10.0 mi NNW 3.5 mph - N/A   Clear
11:53 AM 79.0 °F 46.0 °F 31% 29.91 in 10.0 mi Calm Calm - N/A   Clear
12:53 PM 84.9 °F 44.1 °F 24% 29.86 in 10.0 mi SE 6.9 mph - N/A   Clear
1:53 PM 88.0 °F 34.0 °F 15% 29.81 in 10.0 mi SE 8.1 mph - N/A   Clear
2:53 PM 82.9 °F 36.0 °F 19% 29.83 in 2.5 mi North 27.6 mph 43.7 mph N/A   Haze
2:57 PM 82.4 °F 37.4 °F 20% 30.03 in 3.0 mi North 24.2 mph 39.1 mph N/A   Haze
3:17 PM 80.6 °F 35.6 °F 20% 30.05 in 7.0 mi North 31.1 mph 42.6 mph N/A Thunderstorm Scattered Clouds
3:30 PM 77.0 °F 42.8 °F 29% 30.11 in 7.0 mi WNW 48.3 mph 59.8 mph N/A   Mostly Cloudy
3:44 PM 68.0 °F 51.8 °F 56% 30.06 in 7.0 mi North - - 0.00 in Rain , Thunderstorm Light Rain
3:53 PM 70.0 °F 50.0 °F 49% 29.93 in 7.0 mi North - - 0.00 in Thunderstorm Mostly Cloudy
4:06 PM 75.2 °F 46.4 °F 36% 30.09 in 10.0 mi North - - N/A   Partly Cloudy
4:53 PM 78.1 °F 46.9 °F 33% 29.90 in 10.0 mi North - - N/A   Clear
5:53 PM 75.9 °F 45.0 °F 33% 29.94 in 10.0 mi North - - N/A   Clear
6:53 PM 77.0 °F 41.0 °F 28% 29.90 in 10.0 mi North - - N/A   Clear
7:53 PM 75.9 °F 42.1 °F 30% 29.88 in 10.0 mi North - - N/A   Clear
8:53 PM 72.0 °F 45.0 °F 38% 29.91 in 10.0 mi North - - N/A   Clear
9:53 PM 70.0 °F 43.0 °F 38% 29.94 in 10.0 mi North - - N/A   Clear
10:53 PM 66.0 °F 43.0 °F 43% 29.94 in 10.0 mi North - - N/A   Clear
11:53 PM 64.0 °F 41.0 °F 43% 29.95 in 10.0 mi North - - N/A   Clear